Regional Weather Roundup
Issued by NWS

Home | Current Version | Previous Version | Text Only | Print | Product List | Glossary Off
Versions: 1 2 3 4 5 6 7 8 9 10 11 12 13 14 15 16 17 18 19 20 21 22 23 24 25 26 27 28 29 30 31 32 33 34 35 36 37 38 39 40 41 42 43 44 45 46 47 48 49 50

000
ASUS43 KLSX 281907
RWRMO

WEATHER SUMMARY FOR MISSOURI
NATIONAL WEATHER SERVICE SPRINGFIELD MO
200 PM CDT THU MAY 28 2015

NOTE: "FAIR" INDICATES FEW OR NO CLOUDS BELOW 12,000 FEET WITH NO
       SIGNIFICANT WEATHER AND/OR OBSTRUCTIONS TO VISIBILITY.
       CURRENT SKY AND/OR WEATHER CONDITIONS ARE NOT AVAILABLE FOR
       CHILLICOTHE AND FARMINGTON.

MOZ001>031-035>038-043-044-053-054-282000-
...NORTHERN AND WESTERN MISSOURI...

CITY           SKY/WX    TMP DP  RH WIND       PRES   REMARKS
KANSAS CTY INT CLOUDY    69  65  86 S12       30.09S
KANSAS C DTWN  RAIN      70  64  81 VRB5      30.08S
LEE`S SUMMIT   RAIN      68  65  90 S8        30.10R FOG
ST JOSEPH      CLOUDY    70  65  84 S8        30.07F
CHILLICOTHE      N/A     75  67  76 SE9       30.09S
KIRKSVILLE     CLOUDY    78  65  63 SE10      30.09F

$$
MOZ066>068-077>081-088>096-101>105-282000-
...SOUTHWEST MISSOURI...

CITY           SKY/WX    TMP DP  RH WIND       PRES   REMARKS
SPRINGFIELD    CLOUDY    79  68  69 S12       30.08F
JOPLIN         LGT RAIN  68  66  93 W8        30.07F

$$
MOZ032>034-039>042-045>050-055>058-069>072-282000-
...CENTRAL MISSOURI...

CITY           SKY/WX    TMP DP  RH WIND       PRES   REMARKS
COLUMBIA       LGT RAIN  72  67  84 CALM      30.09F
JEFFERSON CITY CLOUDY    76  61  59 CALM      30.08F
ROLLA          PTSUNNY   78  68  71 S14       30.09F
SEDALIA        CLOUDY    81  67  62 S8        30.07F
WHITEMAN AFB   CLOUDY    78  65  64 W6        30.06F
WARRENSBURG    CLOUDY    77  64  65 N3        30.06F
OSAGE BEACH    CLOUDY    81  68  65 S5        30.09F

$$
MOZ051-052-059>065-282000-
...EAST CENTRAL MISSOURI...

CITY           SKY/WX    TMP DP  RH WIND       PRES   REMARKS
ST LOUIS INTL  PTSUNNY   84  66  54 SE9       30.11F
SPIRIT OF STL  PTSUNNY   82  66  57 S9        30.08F
ST CHARLES     MOSUNNY   84  67  56 S9G20     30.09F

$$
MOZ072>076-082>087-097>100-106>115-282000-
...SOUTH CENTRAL AND SOUTHEAST MISSOURI...

CITY           SKY/WX    TMP DP  RH WIND       PRES   REMARKS
CAPE GIRARDEAU MOSUNNY   81  67  62 VRB7G17   30.14F
FARMINGTON     PTSUNNY   79  66  65 SW13      30.18F
POPLAR BLUFF   MOSUNNY   78  65  63 VRB6      30.13F
WEST PLAINS    PTSUNNY   77  65  66 SE8       30.14F

$$



USA.gov is the U.S. government's official web portal to all federal, state and local government web resources and services.